Retour au catalogue

FENGYUN 1C DEB

ActifSSO
NORAD 30099·DEBRIS·🇨🇳 China

Lancé May 10, 1999 depuis Taiyuan Satellite Launch Center

Loading…

Prochains Passages (prochaines 24 heures)

TLE

FraisSource: Space-Track

Époque: Sep 14, 2026, 03:34 UTC

1 30099U 99025RC  26257.14888733  .00000386  00000-0  17480-3 0  9990
2 30099  98.5125 327.0846 0062308 158.6619 231.7327 14.26259955 21105

Suivez FENGYUN 1C DEB en temps réel avec AllMySat

Download on the App Store